Theta_e
345 347 349 349 348 347 347 347 346 347 346 346 347 346 346 346 346 345 344 346 347 347 347 347 347 348 349 349 349 349 349 348 347 347 346 346 345 345 345 345 344 344 341 336 334 336 339 342 341 341 341 341 340 339 339 339 340 339 338 336 335 333 332 332 331 331 331 330 329 329 329 329 328 327 336 340 332 324 325 325 325 325 325 325 325
344 347 348 349 348 347 347 347 346 347 347 346 346 346 346 345 344 343 342 344 345 346 347 347 346 346 347 348 349 349 349 349 347 347 345 345 345 345 346 346 345 345 343 338 336 337 339 340 341 342 341 340 340 339 338 338 338 337 336 335 334 333 333 332 332 333 332 331 331 330 331 331 329 331 334 338 335 327 326 326 325 325 325 325 325
344 346 346 348 349 347 347 347 347 347 346 346 346 346 346 346 345 343 342 343 344 345 347 347 347 347 347 347 348 348 348 348 347 346 345 344 345 345 346 346 346 346 344 341 339 339 339 340 340 341 340 339 339 337 337 337 337 336 335 335 336 335 335 334 334 335 334 333 331 332 335 334 332 333 332 334 338 333 327 326 326 325 325 326 325
345 346 345 347 348 347 347 347 347 347 346 347 347 346 346 346 346 345 344 343 343 344 346 346 347 347 347 347 347 347 347 347 347 346 345 344 345 345 345 345 346 346 344 343 342 342 342 341 340 340 338 338 337 337 336 336 336 336 335 336 337 337 337 336 337 337 336 335 334 334 335 334 333 333 333 334 340 339 332 327 326 326 325 326 325
345 345 346 346 347 348 347 348 347 347 347 348 348 347 346 347 346 345 345 343 343 344 344 345 346 347 347 347 347 347 346 346 347 346 346 344 344 344 344 344 344 344 344 343 343 343 341 340 339 338 337 338 337 336 336 336 336 336 337 337 337 338 338 337 338 340 339 337 337 338 338 336 336 336 336 337 340 340 336 331 326 326 326 325 325
345 346 347 347 347 348 347 348 347 347 347 347 348 347 347 347 346 345 345 344 344 344 343 343 344 346 346 347 346 346 346 346 346 345 345 344 344 344 343 342 342 343 342 342 341 341 340 339 338 338 338 337 337 338 338 338 337 338 338 338 338 338 338 337 337 339 338 338 339 341 342 340 339 339 338 338 340 339 337 335 329 326 327 326 326
344 346 348 347 347 347 347 347 346 347 347 347 346 346 346 346 345 345 345 345 345 344 343 343 342 344 345 345 346 345 346 345 345 345 344 344 344 343 342 342 342 342 342 342 340 340 340 339 338 337 337 337 338 338 339 339 339 338 338 338 338 337 337 336 337 338 336 337 338 341 344 343 341 340 339 338 339 338 336 336 333 330 328 327 326
343 345 346 347 347 346 347 346 346 346 346 346 346 346 345 345 345 345 346 346 345 344 343 343 343 343 344 345 345 345 345 345 344 344 344 344 344 343 343 343 343 343 343 343 341 340 340 340 339 339 338 339 339 340 340 340 339 339 338 337 337 337 336 335 337 338 336 336 338 340 342 342 342 340 339 338 337 337 335 334 335 334 331 328 326
344 345 345 347 347 346 345 345 345 345 346 345 345 345 345 345 345 345 345 345 345 344 343 344 344 344 344 344 344 345 345 345 344 345 345 345 344 344 344 345 345 345 345 344 343 342 342 341 342 342 342 342 342 341 341 339 339 338 338 337 336 335 335 336 338 339 338 338 339 340 340 341 341 341 339 338 336 335 336 335 335 335 335 332 328
344 345 345 346 346 346 344 345 345 344 346 346 345 345 344 345 345 345 344 344 345 344 343 343 344 344 344 344 344 345 345 345 345 345 345 345 344 344 345 345 346 345 344 344 343 342 342 342 342 342 343 342 341 340 340 339 339 337 336 336 336 336 336 336 337 339 339 339 339 338 337 338 340 341 339 337 336 335 336 337 336 335 334 334 333
344 345 344 345 346 346 344 345 345 344 345 345 345 345 345 345 345 344 343 343 343 343 343 343 344 344 344 344 345 345 345 344 345 345 346 345 345 345 345 345 345 345 344 343 343 342 341 341 341 341 341 340 340 340 340 340 338 337 336 336 337 338 337 337 338 339 339 339 338 336 334 337 342 342 340 337 335 336 337 337 337 335 334 333 334
342 344 344 345 346 345 344 344 344 344 344 344 345 345 345 345 345 345 344 344 343 343 343 343 343 343 344 344 345 346 345 345 346 346 346 345 345 345 345 345 345 344 343 343 343 342 341 341 341 341 340 340 340 340 340 340 338 337 337 338 339 341 340 339 339 339 340 339 339 337 333 336 342 343 339 336 333 334 336 337 337 336 335 334 333
342 343 344 345 346 345 344 343 344 345 345 345 345 345 344 344 345 345 345 344 344 343 343 343 343 343 343 343 343 344 344 344 344 345 345 345 345 345 345 344 344 343 343 342 342 341 339 338 338 338 338 338 339 339 339 339 338 338 339 339 340 341 341 340 340 341 343 340 340 340 336 336 340 340 339 337 332 328 331 336 337 336 336 335 334
341 341 342 342 343 343 342 342 343 344 345 344 343 344 344 343 344 345 345 344 343 343 343 343 342 342 342 342 341 341 340 340 341 341 342 342 342 341 341 340 340 339 339 338 337 336 335 334 334 334 335 335 336 337 338 338 339 340 340 339 340 340 341 341 342 343 344 342 340 340 339 337 340 340 340 338 331 325 327 331 335 336 336 336 335
342 341 341 340 339 339 340 342 342 344 344 343 343 343 343 344 345 346 344 343 342 342 342 342 341 342 341 342 342 341 341 341 340 340 341 340 339 338 336 336 334 334 333 332 331 331 330 330 331 332 333 334 336 336 337 338 339 339 339 340 340 340 340 342 343 344 345 343 340 340 340 340 342 341 338 339 336 326 324 328 331 335 336 338 337
343 342 341 339 338 338 340 342 343 344 344 344 344 344 344 343 343 345 343 341 341 340 341 342 343 343 343 343 343 343 343 343 342 342 342 342 341 339 338 336 335 334 333 331 330 330 329 330 329 329 330 331 332 333 334 335 336 337 338 339 340 340 340 340 342 343 344 344 342 340 340 340 340 339 337 340 340 332 325 326 330 333 337 338 338
342 343 342 339 337 338 340 342 343 344 344 344 344 344 343 341 340 340 340 340 340 341 342 343 344 344 344 344 344 344 344 343 343 342 342 342 342 341 339 336 335 335 334 332 332 333 334 334 334 334 334 333 333 333 335 335 335 336 337 338 338 339 339 339 340 341 342 343 343 341 339 339 338 339 341 341 341 338 330 325 328 332 336 337 337
342 343 342 340 338 338 340 342 344 345 345 344 343 343 342 340 336 337 340 341 343 344 344 344 344 345 345 344 344 344 344 344 344 342 340 340 340 340 338 334 333 333 334 335 336 338 338 339 340 339 339 339 339 339 339 339 339 338 339 339 338 339 339 340 339 339 339 340 342 341 340 340 338 340 343 343 342 341 333 326 326 330 335 335 334
342 343 342 341 339 337 340 343 344 344 344 344 344 343 343 342 338 338 341 343 345 345 344 344 345 345 345 344 345 344 344 344 344 343 341 338 336 336 336 334 333 335 338 339 339 339 338 338 338 338 338 339 339 340 340 340 340 340 340 340 340 340 340 339 338 338 338 340 342 341 341 340 340 342 344 344 344 341 336 329 326 327 333 336 334
342 342 342 341 338 337 341 344 343 343 344 344 343 343 343 344 343 342 342 343 343 343 343 345 345 345 345 345 344 344 344 344 345 344 341 337 333 334 334 334 335 337 339 338 337 337 336 336 336 337 337 337 338 338 339 339 339 339 339 338 339 340 339 338 337 336 338 341 343 343 344 343 343 344 344 344 345 342 336 330 327 327 330 336 337
342 342 342 340 338 339 342 343 344 343 344 344 343 344 344 345 345 344 344 343 342 341 341 343 344 345 346 345 345 344 344 344 345 343 339 335 331 332 334 335 335 337 337 335 334 334 334 335 336 337 337 338 338 338 338 338 338 338 338 339 339 339 339 339 338 339 340 342 344 344 345 344 344 345 345 345 344 341 336 331 328 327 327 331 334
343 343 342 340 338 340 342 342 343 344 344 344 344 344 345 345 345 344 345 344 343 341 338 336 339 344 346 345 344 344 344 343 342 339 336 333 329 329 332 333 333 333 333 332 332 333 334 335 336 336 337 337 338 339 339 339 339 339 339 341 341 339 340 340 340 340 341 341 342 343 343 342 343 344 344 344 342 341 338 334 329 328 328 328 328
344 343 340 339 338 340 340 340 341 342 343 343 343 344 345 344 343 344 344 344 344 338 332 329 331 337 343 344 343 343 341 340 338 337 334 332 327 328 330 331 331 331 331 332 333 335 335 336 336 337 338 340 341 343 343 340 340 341 341 341 340 340 341 341 341 341 341 342 342 343 343 343 344 344 344 344 344 342 341 339 333 329 328 328 328
343 341 339 339 339 339 339 339 339 339 341 342 342 344 344 343 343 344 343 344 341 332 326 327 329 332 337 340 339 338 337 335 335 334 331 328 326 327 328 329 330 331 333 334 335 336 338 339 339 341 343 344 343 344 343 340 341 342 342 342 341 341 341 342 342 342 341 342 343 344 344 345 345 344 344 345 345 344 344 343 338 333 328 328 328
342 340 339 340 340 340 340 339 339 338 338 339 342 343 343 342 343 343 343 343 335 327 329 332 333 336 337 338 338 337 336 335 334 331 327 326 326 327 328 329 331 333 335 337 338 339 342 344 344 344 345 345 344 343 342 341 341 342 343 343 343 342 342 342 342 342 342 343 344 345 345 344 343 342 341 341 343 343 342 343 342 338 332 329 328
341 340 339 340 340 340 340 340 339 339 337 336 340 342 342 342 343 343 342 337 328 329 336 338 341 342 342 342 342 342 340 338 336 330 326 326 326 327 328 331 334 337 337 340 342 343 345 346 346 345 345 344 344 343 343 343 343 343 343 343 344 343 342 342 342 342 342 344 345 345 345 344 342 341 340 341 344 342 339 339 341 342 339 333 330
341 340 340 340 340 340 340 340 339 339 336 334 338 342 342 342 344 342 335 330 329 335 340 342 344 344 344 345 345 344 341 338 335 330 326 326 327 328 330 332 336 341 342 342 343 344 345 345 345 345 345 345 345 343 343 345 345 344 344 343 343 342 342 341 341 341 343 343 343 345 345 344 344 343 341 341 343 342 340 340 339 342 342 339 335
341 340 340 339 340 340 340 339 340 339 335 333 336 340 340 342 343 337 330 333 338 341 341 343 343 344 345 346 346 344 339 335 332 329 328 330 332 331 332 335 339 343 344 344 344 345 345 345 345 346 347 346 346 345 344 346 345 343 344 344 344 342 341 341 341 342 343 343 342 343 344 345 346 344 343 343 345 345 343 342 341 341 342 341 340
340 340 340 339 339 339 339 339 339 339 336 332 335 338 338 339 340 333 332 340 343 342 342 343 343 344 344 344 344 342 340 337 335 331 331 337 340 337 336 340 342 344 344 344 344 344 344 344 344 346 347 347 347 346 346 347 345 344 345 345 344 343 342 342 341 341 343 343 343 343 344 345 346 345 345 345 346 346 345 343 342 342 343 343 343
338 338 338 338 337 338 339 338 338 340 337 332 334 336 335 336 337 333 335 341 343 342 342 343 343 344 343 342 343 343 343 343 342 340 338 341 343 340 341 343 343 344 344 344 344 344 344 345 345 345 346 348 348 348 347 346 344 345 345 343 343 342 342 342 340 339 340 341 342 342 343 344 345 345 345 345 346 346 345 344 343 343 343 343 343
336 337 337 337 337 338 339 337 336 341 341 335 333 334 335 335 335 335 337 341 342 342 342 343 343 344 343 343 344 345 345 344 344 344 344 345 344 342 344 344 344 345 344 345 345 344 345 346 345 346 348 348 349 348 348 345 345 346 344 343 343 341 342 342 340 340 339 339 341 342 343 345 345 345 345 346 346 346 345 344 345 344 343 343 343
338 338 338 338 338 338 338 337 337 341 342 339 336 334 335 336 336 338 340 342 342 343 343 343 343 343 342 344 345 346 346 345 344 344 345 346 345 343 344 345 344 344 344 344 345 346 346 346 345 346 348 349 350 349 349 346 347 346 344 343 344 342 342 341 341 342 341 340 341 342 343 345 346 347 347 346 346 345 342 344 346 346 345 345 344
341 340 340 339 339 339 339 338 338 341 342 340 339 336 336 337 337 338 341 342 342 342 343 343 343 342 341 343 346 346 347 347 347 344 345 346 345 345 345 345 345 344 345 345 344 346 346 345 346 348 348 350 351 350 349 348 348 347 344 343 345 345 344 341 340 340 340 340 340 342 344 345 345 345 346 345 345 344 342 344 346 346 346 345 345
344 342 343 341 340 340 340 340 340 341 342 342 340 339 337 337 336 337 339 341 341 340 342 342 342 343 341 342 345 346 347 349 349 345 345 346 346 345 345 346 346 344 346 347 347 347 346 345 348 349 349 350 350 349 349 349 349 347 345 344 345 347 346 343 340 339 339 340 341 343 345 346 345 345 345 344 345 345 343 344 345 344 345 344 344
346 344 345 343 342 342 340 340 340 341 342 342 341 340 339 339 338 336 337 340 339 340 342 341 342 345 343 341 344 346 346 347 348 347 346 346 345 345 345 344 344 344 344 346 347 347 346 346 348 348 349 349 348 348 350 349 349 349 346 345 346 347 347 344 343 342 341 342 342 345 346 346 345 345 346 346 346 347 346 345 344 344 344 343 343
347 346 347 346 346 345 342 341 340 341 342 342 341 342 341 341 340 337 337 338 338 338 340 341 343 346 345 342 342 344 345 345 345 347 347 346 344 345 346 343 344 344 343 343 346 346 346 346 346 347 348 348 348 350 349 348 349 349 347 346 347 347 346 344 343 343 344 344 345 345 346 346 345 346 347 347 347 348 347 345 345 344 344 343 342
347 348 348 348 348 347 346 343 342 341 342 343 343 342 343 342 341 339 338 337 337 337 339 342 344 346 346 344 341 339 342 344 345 347 346 345 344 345 347 345 345 345 342 343 344 344 345 344 344 346 348 349 350 350 349 348 349 349 347 347 348 348 344 343 345 345 345 346 345 346 346 347 347 347 348 348 348 347 344 344 344 343 342 341 340
347 348 348 348 348 348 348 346 345 343 343 343 344 344 344 344 343 342 341 338 338 339 338 341 344 345 345 345 343 339 337 340 342 342 340 342 344 346 346 345 346 345 344 343 343 344 345 345 346 348 350 351 350 349 348 349 348 348 348 348 349 347 343 344 345 345 345 346 345 346 348 349 348 348 348 348 348 346 344 344 344 343 343 341 340
347 348 349 348 348 348 348 347 347 345 343 344 345 345 345 345 344 343 342 341 341 342 340 338 340 343 344 344 344 341 337 336 337 336 335 339 344 347 346 345 345 346 345 345 344 345 346 347 349 350 350 350 348 348 349 350 349 348 349 349 349 347 344 345 346 347 346 346 347 348 349 350 349 349 349 347 344 343 343 343 343 341 340 340 340
347 348 348 349 349 349 349 348 348 346 344 344 347 347 346 347 346 344 343 343 342 342 340 339 341 345 347 346 344 342 339 337 336 335 334 338 344 347 347 346 346 346 346 346 345 345 345 347 348 349 349 347 348 350 350 350 349 349 349 350 349 347 345 346 347 347 347 348 349 349 350 350 349 348 348 346 344 344 344 343 341 339 337 338 340
347 348 348 349 349 349 348 348 349 348 345 345 347 347 347 347 347 346 345 344 344 343 342 342 344 347 348 347 346 344 343 340 338 337 335 335 341 347 348 347 348 348 347 347 346 346 346 347 348 349 348 345 347 350 349 349 349 349 349 349 348 347 347 347 347 348 348 350 350 350 349 349 348 347 346 345 346 346 345 344 344 342 339 338 340
347 347 347 348 348 348 348 348 348 348 348 345 345 345 345 345 346 345 345 345 345 344 344 345 346 348 348 347 347 347 346 344 342 341 338 334 337 344 347 347 348 348 348 347 346 346 347 349 349 348 347 345 347 349 350 350 349 348 349 347 347 347 346 347 348 347 349 351 351 351 349 348 348 347 346 346 346 346 346 346 346 343 340 340 342
347 346 346 347 348 348 348 348 347 348 348 347 345 345 344 344 343 344 344 344 345 345 344 345 346 347 348 348 347 347 347 346 346 345 341 336 334 338 344 346 347 347 347 348 347 347 348 349 347 346 345 345 348 350 350 350 349 349 349 347 347 347 346 346 348 348 350 351 351 350 349 347 348 348 347 346 346 346 346 347 347 343 340 341 343
346 346 346 347 347 348 348 348 347 348 348 348 348 347 347 345 344 344 345 345 346 346 345 345 346 347 348 348 347 347 347 347 348 347 345 340 336 335 338 342 344 345 345 347 348 346 347 347 345 344 344 347 350 350 350 350 350 349 349 348 348 348 347 347 348 349 349 350 349 349 348 348 347 347 347 346 347 348 347 347 347 345 343 343 342
349 347 346 347 347 348 348 348 348 348 347 348 348 349 349 347 344 343 344 345 346 347 347 344 344 346 347 347 347 347 348 348 348 348 347 344 339 335 336 338 341 343 343 345 346 345 345 345 344 344 347 349 350 350 350 351 350 350 350 348 349 349 349 349 349 349 349 349 348 348 348 348 347 345 347 347 348 348 346 347 347 345 344 344 343
352 350 347 347 347 347 348 349 348 348 348 348 349 349 349 346 342 341 342 343 344 346 347 345 343 345 346 347 348 348 348 348 348 348 348 345 341 338 336 337 339 341 341 343 344 344 344 344 343 345 348 349 350 350 351 351 350 350 350 349 349 349 349 349 350 350 349 348 347 347 347 347 346 344 346 347 347 347 346 347 348 345 343 344 344
353 352 350 349 349 348 348 349 349 348 348 348 349 349 349 346 341 340 341 342 343 344 346 346 345 346 348 348 348 348 348 348 348 348 348 345 341 340 338 337 337 338 339 340 341 342 343 343 344 346 349 350 350 350 351 351 349 349 350 349 349 349 348 349 350 350 350 349 348 347 347 348 348 346 345 345 346 345 344 346 348 346 345 345 345
354 352 351 350 350 350 350 350 350 349 349 349 350 350 349 347 343 341 342 343 343 345 345 347 347 348 349 349 348 348 348 348 348 348 349 346 341 340 340 338 337 337 338 338 338 341 343 343 346 349 350 351 350 349 350 350 348 348 350 350 349 348 348 348 349 350 350 350 349 348 346 347 348 347 344 343 344 343 342 345 348 347 347 347 346
353 352 351 351 350 351 351 351 351 351 351 350 351 350 349 348 345 344 343 345 346 347 347 347 348 348 348 348 348 349 348 348 349 348 349 348 344 340 339 339 338 337 338 337 336 341 343 344 348 351 350 350 350 349 349 349 349 350 351 350 349 349 348 348 349 350 350 350 351 351 349 347 348 347 345 345 345 342 343 345 347 347 347 347 346
351 351 352 351 351 351 351 352 352 351 351 350 350 350 349 348 347 346 346 347 348 348 347 347 348 349 348 348 349 348 349 349 349 349 348 348 347 345 342 341 340 339 339 338 336 339 343 344 347 350 350 350 349 349 349 348 348 350 351 351 351 350 349 348 349 349 351 351 351 352 351 349 349 349 347 347 347 344 344 346 346 347 347 346 346
351 352 353 353 352 351 350 350 351 351 351 350 350 349 349 349 347 348 348 347 348 348 348 347 347 348 348 349 349 349 349 348 348 349 349 348 348 348 347 344 344 342 341 340 337 337 341 344 347 349 350 350 349 348 347 346 347 347 348 350 351 350 349 349 349 349 351 351 351 351 351 350 351 351 348 348 348 346 346 347 346 347 347 346 347
Wind_Speed
22 20 19 18 18 19 19 19 20 20 20 20 19 19 19 19 18 18 19 19 19 18 18 19 19 20 20 22 22 21 22 22 22 22 22 22 22 21 20 19 18 16 16 16 16 16 15 14 13 12 11 10 10 9 9 8 7 7 6 6 6 6 7 7 6 5 6 6 7 7 7 8 9 10 12 10 9 11 12 13 13 14 16 16 17
23 21 19 18 19 19 19 20 20 21 21 20 19 19 18 18 18 18 19 19 19 18 18 18 19 19 19 19 20 21 22 21 21 21 22 23 22 21 19 18 17 15 15 15 16 15 13 13 11 10 9 9 9 9 8 7 7 6 6 5 5 5 6 6 6 5 5 5 5 6 7 7 8 9 10 10 10 10 10 10 10 11 13 15 16
24 22 20 18 19 20 20 20 20 20 21 20 20 19 18 17 17 17 18 18 19 18 18 18 18 19 19 19 19 20 20 20 20 21 22 22 21 19 18 17 16 15 15 15 15 14 12 12 10 10 9 9 9 9 8 7 6 6 5 5 4 4 4 5 5 5 5 4 4 5 7 7 7 7 8 9 10 10 9 9 8 8 10 13 14
24 23 21 19 19 20 20 20 20 19 20 20 20 20 19 17 17 17 18 18 18 18 18 18 18 18 18 19 19 19 19 19 19 21 22 22 21 19 17 16 16 14 14 14 14 13 12 11 11 10 9 9 9 9 8 7 6 5 5 4 4 4 4 4 5 5 5 4 4 4 6 6 6 6 6 6 8 8 8 8 8 7 8 10 12
23 23 22 20 20 21 21 20 19 19 19 18 18 19 20 18 17 18 18 18 18 18 17 18 18 18 18 18 18 19 19 18 18 19 21 21 20 18 17 16 15 14 13 13 13 12 11 12 11 10 10 10 9 9 8 7 6 5 4 4 4 3 3 4 4 4 4 4 3 4 6 5 6 7 6 5 6 6 6 7 7 7 7 8 9
24 23 22 22 21 21 20 20 19 18 18 18 18 18 19 18 17 18 18 18 18 18 18 18 18 18 18 18 18 18 19 19 18 18 19 19 19 18 17 16 15 14 13 12 12 12 11 11 11 10 10 9 9 8 8 7 6 5 5 4 3 3 3 3 3 3 3 3 3 5 6 6 6 7 7 6 5 5 5 7 6 7 7 7 7
23 23 23 22 22 22 20 20 20 18 18 18 18 18 18 18 18 18 18 18 18 19 18 18 18 18 18 18 18 18 18 18 18 18 18 17 17 17 16 15 14 14 13 12 12 12 11 11 11 10 10 9 8 8 7 6 6 5 4 3 3 3 3 3 4 4 5 5 5 7 7 6 5 6 7 7 7 5 5 5 6 6 6 6 6
24 23 23 23 22 22 21 20 20 19 19 18 18 19 19 19 19 19 19 18 18 19 19 19 19 18 18 18 18 17 17 17 18 17 17 16 16 15 15 14 14 13 12 12 11 11 11 11 10 10 9 9 8 7 7 6 5 5 4 3 3 3 3 4 4 5 6 6 6 7 8 6 5 5 6 7 8 7 6 5 6 6 6 6 7
24 23 23 22 22 21 21 21 20 19 19 18 19 19 19 19 20 20 19 18 18 19 19 20 19 19 19 18 18 17 17 17 17 16 16 15 15 15 14 14 14 13 12 11 11 11 10 10 10 10 9 9 8 7 6 5 5 5 4 3 3 3 4 5 5 6 6 6 6 6 7 7 6 5 5 6 8 8 8 8 8 8 7 7 7
23 22 22 22 21 21 21 20 20 19 18 18 19 20 19 19 20 20 20 18 18 18 19 20 20 20 19 18 18 18 17 18 17 16 16 15 15 15 14 14 13 13 12 11 11 10 10 10 10 9 9 8 8 7 6 5 5 5 4 4 4 4 4 5 5 5 6 6 6 5 6 7 7 5 4 4 6 7 8 9 9 10 9 8 8
23 22 22 21 21 20 20 20 20 19 18 18 18 20 20 19 19 19 19 18 18 18 18 19 19 19 19 18 18 17 18 18 17 16 15 15 15 15 14 14 13 12 12 11 10 10 9 9 9 9 9 8 7 6 6 5 5 5 5 5 5 5 5 4 5 5 5 6 5 5 6 7 7 5 4 3 3 5 7 8 9 10 10 10 10
25 23 22 21 21 20 20 20 20 19 18 19 18 19 20 19 18 17 18 18 18 17 17 17 18 18 18 18 17 17 17 17 17 16 15 15 15 14 14 13 12 12 11 10 9 9 9 9 9 9 8 8 7 6 5 5 5 5 5 5 5 5 5 5 5 6 6 6 6 6 5 6 7 6 5 3 1 3 6 8 9 10 10 11 10
26 24 23 22 21 20 20 19 19 19 18 19 18 18 19 19 18 17 17 17 18 17 17 17 17 17 17 17 16 16 15 16 16 15 15 14 14 13 13 12 11 11 10 10 9 8 8 8 8 8 7 7 6 5 5 5 5 5 5 5 5 5 6 6 6 6 7 7 6 6 5 7 8 7 4 2 1 3 6 8 8 9 10 11 11
26 25 23 22 21 20 19 19 18 18 18 18 19 18 18 18 18 17 16 17 17 17 17 17 17 17 17 17 17 16 16 16 15 15 14 13 12 12 12 12 11 11 10 9 9 8 8 7 7 7 6 6 5 5 5 5 6 5 5 5 5 5 6 6 6 7 8 8 7 6 5 7 7 5 4 2 1 3 6 8 9 10 11 12 12
25 24 23 22 21 20 19 18 17 17 17 18 18 17 18 17 17 17 16 16 16 17 17 17 17 17 17 17 17 17 16 15 15 14 14 13 12 11 11 11 11 10 10 9 8 8 7 6 6 6 5 5 5 4 5 5 5 5 5 5 5 6 6 6 6 7 8 8 8 5 4 4 4 5 5 2 1 1 5 8 10 11 11 12 12
24 24 23 22 21 21 19 17 17 16 17 17 16 16 17 16 16 16 16 16 16 16 16 17 16 16 16 16 16 16 15 15 14 13 13 13 12 11 10 10 10 10 9 9 9 8 7 6 6 6 5 4 4 4 4 4 4 4 5 5 5 6 6 6 7 8 8 8 8 6 5 5 5 6 5 3 1 1 4 7 10 12 12 12 12
24 24 23 22 21 20 19 18 17 16 17 17 16 16 16 15 16 17 17 17 16 16 16 16 16 16 16 15 15 14 14 13 12 11 11 11 10 9 9 9 9 9 9 9 9 8 7 6 6 5 5 4 4 3 3 3 3 4 4 5 5 5 6 7 8 9 8 8 9 8 7 7 6 7 7 4 3 1 3 6 9 12 13 13 12
24 24 23 22 20 19 18 18 17 17 18 18 17 17 16 16 16 17 18 17 16 16 16 15 15 15 15 14 13 13 12 12 11 10 9 9 9 8 8 8 9 9 9 9 8 8 7 6 5 4 3 3 3 3 2 2 3 3 4 4 5 5 6 7 8 9 9 9 10 9 9 8 7 9 8 6 5 3 3 5 8 11 13 13 14
24 24 22 21 19 18 19 18 18 18 19 18 18 17 16 15 17 18 18 17 15 15 16 15 15 14 14 13 13 12 12 11 10 9 9 8 8 8 8 8 9 9 9 8 8 7 6 5 4 4 3 3 3 2 2 2 3 3 3 4 5 5 6 7 8 9 9 9 10 10 9 9 8 9 9 8 6 5 4 6 8 10 12 13 14
24 23 22 21 19 18 19 18 18 19 19 18 18 17 16 15 16 17 17 16 15 14 15 15 14 14 14 13 12 12 12 11 10 9 9 8 8 8 8 8 9 8 8 7 7 6 6 5 5 4 3 3 3 2 2 2 2 2 3 3 4 4 5 6 7 8 8 8 8 9 8 8 9 9 9 9 9 7 6 8 8 10 12 14 14
24 24 22 21 19 19 19 19 19 18 19 18 18 17 17 17 16 17 17 16 15 14 14 14 15 14 14 13 12 12 12 11 10 9 8 8 9 9 8 9 9 8 8 7 7 6 6 6 5 5 4 4 3 2 2 1 1 2 2 3 3 4 5 7 8 8 7 7 8 8 9 9 9 10 11 11 10 8 7 9 10 11 12 14 14
25 24 22 21 19 19 20 19 19 18 18 18 18 18 18 18 17 17 16 16 15 13 13 14 15 15 15 14 13 12 11 10 9 8 8 9 9 10 10 9 9 9 8 8 7 7 7 6 6 5 4 4 4 3 2 2 2 2 3 3 4 5 7 8 9 9 9 9 9 9 10 10 9 10 11 11 10 9 9 9 10 12 12 13 14
25 25 23 21 20 20 19 19 18 18 18 18 18 18 18 18 17 17 16 15 14 13 13 13 14 15 15 14 13 11 10 9 8 8 8 9 10 11 11 11 10 10 9 9 8 8 7 6 6 5 4 3 2 1 2 3 3 3 5 5 5 6 8 9 9 9 9 9 8 8 9 10 10 10 11 11 11 11 11 10 10 11 13 14 14
25 24 22 21 21 20 19 18 18 18 18 19 19 18 18 18 17 17 16 15 13 12 13 14 14 14 15 14 13 11 10 9 9 9 10 10 10 11 11 11 11 10 9 9 8 8 7 6 5 4 2 1 1 2 4 5 4 5 6 7 7 7 8 8 8 8 9 8 7 7 9 11 11 11 11 11 11 12 14 13 11 10 13 14 15
24 23 22 22 21 21 19 19 18 18 18 19 20 19 19 19 18 17 15 14 12 12 14 15 15 15 15 15 13 12 11 11 10 10 11 11 10 11 11 11 10 10 9 9 9 8 7 5 4 2 0 0 1 2 4 5 6 6 7 7 8 9 9 9 9 10 10 10 9 9 10 12 11 11 11 11 11 12 14 16 14 11 12 14 16
23 23 23 22 22 21 20 19 19 17 16 18 21 19 19 19 18 17 15 14 13 14 14 14 14 14 15 14 13 12 11 12 10 9 11 11 10 11 11 11 10 10 9 9 8 6 5 3 2 2 2 3 3 3 4 5 7 7 7 8 9 9 9 9 10 10 11 11 11 11 12 12 12 12 12 13 13 12 13 15 16 14 13 13 15
24 23 23 22 22 21 20 19 18 17 15 17 21 20 19 18 17 16 15 15 15 15 14 14 13 13 13 12 12 11 10 10 10 8 9 11 11 11 11 11 11 10 8 7 5 4 2 1 2 3 4 4 5 4 4 6 7 8 9 9 9 8 8 6 7 7 8 9 10 12 13 13 14 14 14 14 14 13 13 15 17 17 15 14 14
24 23 23 23 22 21 20 19 18 17 15 17 21 21 19 18 17 16 16 15 15 15 14 13 13 13 12 12 11 10 10 10 9 8 9 11 11 11 12 11 9 8 6 5 3 2 1 1 2 4 4 4 6 6 6 6 8 10 10 9 8 7 7 5 5 6 7 8 8 10 12 13 15 16 16 17 16 16 16 16 17 18 18 15 14
23 24 23 22 22 21 20 19 18 17 16 17 20 21 20 19 18 17 16 15 14 14 14 14 13 12 12 12 12 12 12 11 10 8 10 12 11 12 12 11 8 5 4 3 2 2 1 1 2 4 5 6 7 8 8 8 8 10 10 9 8 8 7 5 5 6 6 7 7 9 10 12 14 14 16 17 18 18 17 17 16 19 19 16 15
22 23 23 22 21 21 20 20 19 18 16 17 18 20 21 21 19 18 17 15 14 14 14 14 13 12 13 14 14 13 11 10 9 9 10 10 10 12 12 10 7 4 2 2 2 2 1 2 2 4 7 7 7 9 9 9 9 9 10 9 8 9 7 5 5 5 5 5 7 8 9 10 12 13 13 14 16 17 18 18 16 17 18 17 16
22 22 22 21 21 21 20 20 20 18 17 17 18 19 20 20 19 18 17 15 15 14 14 13 13 13 14 14 13 11 9 9 8 8 8 8 10 12 10 7 5 3 2 2 4 3 2 3 3 5 8 7 7 9 9 10 10 10 10 8 8 8 5 5 6 5 5 6 6 8 9 10 11 12 13 13 14 14 16 16 14 15 16 16 16
22 22 21 22 22 22 21 21 20 19 17 17 18 18 18 19 18 18 17 15 15 14 13 13 12 12 14 14 12 10 9 7 7 8 8 7 8 9 8 6 4 2 2 3 5 4 2 3 4 5 7 7 7 9 9 9 10 11 9 8 8 7 5 5 6 5 6 7 7 7 8 9 11 11 12 13 12 12 14 15 13 14 13 13 14
22 21 21 22 22 22 22 21 21 19 18 17 17 17 17 17 17 18 17 16 16 15 14 13 12 12 13 14 13 11 8 7 6 7 9 8 7 7 6 4 1 2 3 3 5 4 2 3 4 5 7 7 7 9 9 8 9 10 9 9 9 7 6 6 6 5 6 6 7 7 7 8 10 11 12 12 11 12 14 14 13 13 13 13 14
22 22 22 22 21 22 22 22 22 20 18 17 17 17 16 16 16 17 16 16 15 15 15 14 13 11 12 15 14 13 9 9 10 10 10 9 7 7 7 7 6 4 4 4 4 3 1 2 4 6 7 7 9 11 9 7 9 10 9 10 10 9 8 7 6 6 6 6 6 6 6 8 10 10 10 9 11 13 13 13 12 13 14 13 13
21 23 23 23 22 22 22 22 22 20 19 18 17 17 16 15 15 17 17 17 16 15 15 14 13 11 12 15 16 15 13 13 14 12 11 9 8 9 9 10 8 6 6 6 6 5 5 5 6 8 9 9 11 11 9 7 9 10 10 11 11 10 9 7 6 6 7 7 6 6 6 9 10 9 9 10 11 12 11 12 12 12 13 13 13
20 21 22 22 22 21 21 22 21 20 20 18 16 16 15 14 14 16 16 17 17 15 14 14 14 13 13 15 17 17 16 17 17 15 14 12 12 10 9 10 9 9 10 10 10 10 10 9 9 10 10 11 11 10 9 8 8 9 10 10 11 11 8 6 5 6 7 7 6 7 7 9 10 10 11 11 11 10 10 12 11 10 12 12 12
19 21 22 22 22 21 19 20 20 19 19 18 17 16 15 15 15 15 16 17 17 15 14 15 15 15 13 14 16 17 18 18 19 17 15 15 14 11 11 12 10 10 11 11 12 13 13 11 10 10 10 11 10 10 9 7 7 9 10 10 12 10 6 5 5 6 6 6 7 8 8 8 10 11 12 11 11 10 9 9 8 8 9 9 10
19 20 21 22 21 20 19 19 18 18 18 18 18 18 16 15 15 16 15 16 16 15 16 17 17 16 14 13 13 15 17 18 18 17 15 15 16 13 13 15 12 11 12 12 13 13 12 9 9 9 9 9 9 9 8 7 8 9 10 11 11 9 6 5 6 7 6 6 7 7 6 6 8 10 10 10 11 10 8 7 5 5 6 7 8
20 20 21 23 21 20 20 18 18 18 18 17 18 18 17 16 16 17 16 16 16 16 17 18 18 16 15 12 12 13 16 16 16 16 14 15 17 14 14 16 14 13 14 14 14 13 11 9 8 9 9 10 9 7 6 7 9 10 11 11 10 8 6 5 8 8 5 5 7 6 4 5 7 8 9 10 10 9 7 6 5 4 5 6 6
22 21 22 24 22 21 21 19 18 17 17 18 19 19 18 17 18 18 18 17 16 16 17 18 17 16 14 12 11 12 14 16 16 15 14 15 18 17 14 15 14 13 15 15 14 14 13 11 10 10 11 9 5 4 4 6 8 9 9 10 9 7 5 6 9 8 4 4 6 6 5 7 8 8 8 9 9 7 4 4 5 5 4 3 4
24 23 24 24 22 21 21 20 19 17 17 19 21 20 19 19 19 19 18 17 17 17 17 18 18 16 14 13 12 11 12 14 15 14 14 15 19 20 17 15 14 13 14 13 12 14 13 11 10 11 9 6 4 3 3 5 7 8 7 7 7 6 5 7 9 6 4 5 6 7 7 8 9 8 7 7 7 4 2 4 6 5 4 3 3
25 25 25 24 23 22 21 19 19 18 17 17 19 19 19 18 18 17 16 16 16 17 17 18 18 16 15 15 13 12 11 11 12 13 13 14 18 21 20 18 16 15 14 12 12 13 12 11 10 10 8 5 4 3 3 5 7 7 8 8 6 5 6 6 6 4 5 5 7 8 8 8 8 7 6 6 6 3 3 5 6 5 3 2 3
25 25 24 24 24 23 22 20 19 19 18 17 17 16 15 15 15 15 15 15 15 15 16 17 17 16 16 16 15 15 13 11 11 10 12 14 16 20 22 21 19 18 17 15 14 14 14 13 10 9 8 6 4 2 3 5 5 6 8 9 7 6 7 5 4 4 5 5 6 9 9 8 6 6 7 6 5 4 4 6 6 4 3 2 3
26 25 24 24 24 24 23 22 21 20 19 19 17 15 13 13 15 15 15 15 14 14 15 17 18 17 17 17 17 16 14 13 11 10 10 12 15 18 21 22 21 19 17 17 16 16 15 13 10 8 6 4 4 4 4 4 4 6 8 8 7 7 8 8 5 4 6 6 7 8 8 6 6 7 9 6 6 6 4 5 4 3 2 2 3
25 25 25 25 24 24 24 23 22 20 20 19 18 16 15 15 17 18 18 17 15 14 15 18 19 19 18 17 17 16 15 14 13 11 10 11 14 16 19 20 21 19 16 16 17 15 14 12 10 8 6 3 5 6 4 4 4 5 7 7 6 6 8 10 8 5 7 8 8 8 6 6 7 8 9 6 6 8 6 5 4 2 1 2 3
23 23 23 24 25 24 24 24 23 22 21 20 19 18 18 18 19 20 20 20 18 17 16 17 19 19 18 17 17 17 16 16 15 14 12 11 13 15 17 19 20 19 17 17 16 14 13 11 10 9 7 4 6 6 5 5 5 5 6 6 6 6 9 10 9 8 10 9 8 9 7 7 9 9 8 4 4 8 7 5 3 1 2 2 2
22 22 21 22 24 24 23 23 23 23 22 21 20 20 20 19 20 20 20 19 18 17 17 16 17 18 17 17 18 17 17 17 16 14 13 13 14 15 16 18 19 19 19 18 16 14 13 11 10 9 6 5 7 8 8 7 6 6 6 6 7 8 9 8 8 10 12 10 9 9 7 9 11 10 8 5 2 5 8 6 4 1 2 1 1
23 22 20 21 22 22 22 22 22 23 23 22 22 21 21 20 20 20 19 19 18 17 17 16 17 18 18 18 18 18 18 17 16 14 13 14 15 15 16 17 18 19 19 19 17 14 13 11 10 9 6 7 9 11 10 8 8 7 6 5 6 8 9 8 8 9 12 12 11 10 9 9 12 11 7 6 4 3 7 8 6 3 2 1 2
23 22 21 20 21 21 22 22 23 23 23 23 22 22 21 20 20 20 19 19 18 17 18 17 17 18 19 19 20 19 19 18 17 16 15 14 14 15 16 16 17 18 19 19 17 15 13 12 12 9 7 8 10 10 10 9 9 8 6 5 7 8 8 8 8 8 10 11 12 12 12 12 12 12 8 7 6 4 6 8 6 4 2 3 3
24 22 20 20 20 20 22 23 24 23 23 23 22 22 21 21 21 21 20 20 19 19 20 19 19 19 20 20 21 20 19 19 19 19 18 16 15 15 15 15 16 17 19 19 18 16 14 13 13 11 9 8 9 10 9 8 9 8 7 6 7 8 8 8 8 8 8 9 11 12 13 14 14 13 11 8 7 5 5 7 6 2 2 3 4
23 22 21 20 20 20 22 23 23 23 23 23 23 22 22 21 21 21 21 21 21 21 21 21 21 21 22 22 22 22 20 20 21 20 20 19 17 16 16 16 15 16 18 19 18 18 16 14 13 12 10 9 10 9 7 7 8 9 9 7 6 7 8 8 8 8 8 8 10 11 12 13 13 13 12 9 7 5 5 6 6 2 3 4 4
Wind_Direction
159 155 151 149 149 150 148 146 140 139 141 143 144 143 143 143 146 147 146 144 143 144 145 146 146 147 151 153 156 158 157 158 157 157 158 156 156 155 154 154 155 153 153 153 153 150 146 148 147 145 147 146 145 144 138 134 132 126 117 109 110 110 114 116 115 110 103 102 102 103 106 108 111 111 104 101 105 101 98 99 99 103 104 101 100
156 155 152 149 148 150 151 149 144 142 142 142 144 143 141 143 147 148 149 149 147 146 148 149 148 147 148 148 151 154 156 156 156 159 161 159 158 157 155 155 155 152 150 151 154 155 153 152 151 150 150 152 152 151 148 141 135 129 125 122 118 117 119 118 117 114 113 114 114 115 109 103 103 105 107 106 103 101 99 101 103 105 107 107 106
153 152 151 149 148 150 152 151 149 147 145 145 145 144 142 144 147 148 150 153 151 147 148 150 150 149 148 147 147 150 154 155 154 157 160 160 160 158 157 156 155 153 151 152 158 160 159 159 158 157 154 155 157 158 157 152 146 141 136 131 126 125 124 121 120 120 122 127 129 123 112 110 111 107 104 99 100 102 105 109 111 111 110 109 110
153 150 150 150 150 151 151 151 151 150 150 149 147 146 146 147 147 148 148 151 151 148 146 147 150 151 149 148 149 150 152 154 154 157 159 161 161 161 159 157 156 157 156 158 161 162 162 163 163 162 160 158 161 165 166 166 162 152 145 142 140 133 126 124 125 129 134 144 141 119 111 116 118 115 111 102 107 108 108 117 120 122 119 115 115
153 148 149 149 151 150 150 149 150 152 153 152 149 147 147 148 149 148 147 147 148 147 147 145 148 150 150 149 150 152 152 154 155 158 160 162 164 165 163 162 163 162 162 164 167 166 166 165 166 165 163 163 166 171 173 175 171 163 158 155 153 142 134 135 136 138 144 159 149 115 107 116 122 120 120 113 116 113 111 121 126 133 132 127 126
154 149 147 148 150 148 148 148 149 151 153 153 149 147 147 147 149 149 147 146 146 146 147 146 145 147 148 147 148 150 153 154 155 157 160 163 166 168 168 168 170 169 167 168 171 172 172 171 172 172 171 173 174 177 179 179 177 172 169 168 173 163 158 160 154 157 167 173 154 127 116 116 124 126 129 131 130 124 121 127 132 141 143 142 140
156 151 148 147 147 147 148 147 148 149 150 151 147 147 146 146 146 146 146 147 146 144 145 145 145 146 146 145 145 149 152 153 153 154 156 161 164 167 169 170 172 173 173 173 175 175 176 177 179 182 184 187 187 189 187 181 181 181 180 187 201 204 194 186 177 181 190 187 162 138 129 122 129 138 143 149 150 149 145 141 143 148 154 156 158
158 154 150 146 145 146 147 148 148 148 148 147 145 145 146 145 143 143 143 144 143 142 141 141 142 142 142 141 141 144 147 148 149 150 152 155 157 160 162 164 168 170 172 172 173 175 177 181 184 188 192 195 196 196 191 185 187 189 191 199 211 210 198 191 184 187 195 192 171 146 138 135 146 158 160 167 166 168 173 176 173 168 166 169 173
159 155 151 148 146 147 148 149 148 148 149 147 145 144 145 143 140 139 137 137 138 138 138 138 138 139 139 138 137 139 141 143 145 147 148 149 151 153 156 159 161 164 165 165 169 173 178 184 188 192 195 195 195 193 188 187 187 187 189 189 192 187 181 179 175 184 193 195 183 158 149 147 154 165 169 184 188 187 190 195 199 194 187 183 183
160 155 153 151 148 149 150 149 149 150 150 149 148 146 145 144 141 140 136 135 135 134 135 136 138 138 138 136 137 139 139 140 142 143 144 145 147 150 153 155 156 158 159 162 166 170 177 183 188 191 192 191 190 186 180 180 176 177 180 175 173 173 175 172 172 186 196 203 199 169 159 157 155 157 156 184 202 201 202 203 205 204 202 199 191
160 156 155 152 149 151 151 150 150 152 153 153 152 148 145 145 144 142 139 140 140 138 136 137 138 139 138 137 138 138 138 139 139 141 142 143 145 147 149 151 153 155 157 160 164 168 172 177 182 184 185 185 183 179 172 170 167 169 174 175 172 174 180 179 183 195 203 214 208 175 160 162 160 153 144 155 201 208 210 210 211 209 208 209 202
160 158 157 154 152 153 153 151 151 153 155 155 154 151 146 146 147 144 142 142 144 144 143 141 141 141 140 140 140 138 138 138 139 142 143 143 143 145 146 149 152 154 158 162 165 168 171 173 177 179 180 180 177 175 170 169 167 168 171 176 180 182 186 193 200 199 206 219 211 185 160 157 163 152 139 135 187 226 224 217 216 216 214 217 214
160 161 161 158 155 155 155 153 153 154 155 155 156 152 148 149 150 148 147 146 147 148 147 147 146 146 145 144 145 143 143 144 145 147 147 147 147 148 150 153 157 160 166 171 175 178 180 180 181 182 183 181 179 177 176 177 171 173 180 186 193 190 191 204 215 208 207 218 217 209 180 157 158 154 150 153 198 240 233 225 222 221 220 221 220
162 163 163 162 159 158 158 156 154 154 155 156 157 154 150 150 151 151 151 150 150 151 150 149 150 149 148 147 147 146 147 148 148 150 151 153 153 155 158 161 166 170 174 177 180 181 181 180 180 180 180 179 175 173 171 171 171 180 192 196 200 195 199 213 221 218 213 216 221 227 199 169 168 174 180 184 206 243 233 230 230 227 222 220 221
164 163 164 164 162 163 162 158 156 156 158 157 158 155 151 150 152 153 153 153 153 154 151 149 148 146 146 144 144 143 143 144 144 146 148 149 150 153 157 161 166 168 170 170 169 167 165 163 164 164 164 162 157 158 158 163 171 184 197 204 210 207 210 217 220 222 220 218 223 231 211 202 219 212 196 199 275 267 231 228 230 229 223 217 217
166 165 166 166 165 167 166 161 158 159 160 158 159 156 154 156 157 156 155 154 152 151 149 146 145 143 144 142 142 140 140 140 141 144 145 146 146 148 151 155 160 163 163 160 156 151 148 146 146 146 145 146 145 149 153 165 177 190 206 216 223 222 221 224 223 222 223 229 233 234 228 240 253 232 211 215 269 316 242 229 226 227 225 219 217
168 169 169 169 169 169 168 164 161 162 162 160 161 158 158 159 157 157 154 151 148 147 147 146 147 146 145 143 143 141 140 139 139 143 146 149 149 150 150 150 151 154 155 150 145 140 136 134 132 130 129 132 138 146 157 171 187 199 211 221 228 232 233 233 228 223 227 236 240 245 245 249 247 240 236 228 235 282 270 245 231 226 225 224 223
171 173 172 172 172 170 170 167 164 164 163 162 163 161 160 156 150 152 149 148 148 148 150 149 150 149 147 147 146 143 141 139 138 140 143 147 148 148 146 143 144 147 148 142 137 133 131 131 128 126 127 135 145 156 168 181 199 211 218 229 234 237 240 240 235 232 239 240 242 251 255 259 251 243 243 237 231 245 262 255 243 232 227 226 225
173 175 175 175 174 172 171 169 167 166 164 163 163 162 160 152 146 148 148 149 149 148 150 152 153 151 149 151 150 148 146 143 141 138 135 133 135 138 137 138 143 144 141 135 132 131 130 128 126 129 135 153 165 170 177 196 213 225 232 238 240 242 243 244 241 238 244 245 246 251 256 262 255 244 243 241 240 242 242 245 244 237 230 227 226
174 176 177 178 176 173 171 169 168 167 166 163 162 163 159 154 149 149 151 152 151 150 151 153 154 153 154 154 154 153 151 148 145 139 130 123 123 129 134 138 143 142 137 134 134 135 133 131 131 135 146 155 158 163 181 204 219 235 239 241 243 245 244 246 248 242 242 244 246 253 261 266 259 251 248 248 249 247 239 234 235 235 232 229 228
175 177 178 179 178 174 171 169 169 169 167 163 164 164 161 160 157 155 154 154 152 154 157 160 160 157 157 158 158 156 153 150 146 139 130 123 123 128 136 140 142 142 141 141 142 145 141 140 142 143 146 149 144 143 163 189 206 242 250 252 250 247 246 247 248 246 243 241 244 251 262 270 264 256 252 253 254 253 245 233 228 231 232 229 229
175 176 180 180 178 174 172 171 171 171 169 164 166 167 164 164 163 162 160 157 157 161 165 167 168 164 162 162 160 158 155 151 143 138 131 127 127 132 138 141 144 145 147 148 149 149 145 142 142 140 136 139 140 137 165 206 226 258 276 276 266 250 245 247 248 251 249 245 251 251 251 258 258 254 255 257 259 259 256 242 229 227 231 231 231
175 177 180 180 179 175 173 173 172 174 172 167 169 170 166 165 166 166 164 163 165 167 168 169 171 169 167 164 163 161 159 154 147 143 138 135 135 138 140 143 147 149 150 148 147 146 143 138 134 131 126 127 136 172 238 247 262 285 294 299 297 271 253 251 251 254 254 250 256 255 248 247 245 248 253 260 267 269 265 255 239 229 231 234 234
175 177 178 179 178 175 173 174 175 177 175 173 173 171 167 167 168 168 167 168 169 166 166 166 165 165 165 164 164 163 162 159 155 151 144 142 141 142 144 145 149 148 144 138 139 140 134 128 127 130 123 134 186 273 265 265 286 298 292 295 303 286 269 263 255 254 253 245 245 254 252 246 241 243 246 254 264 270 268 258 246 236 233 235 238
175 176 178 178 176 175 174 175 177 177 178 179 178 172 168 168 168 169 169 170 170 165 164 162 158 158 159 159 159 158 159 156 152 150 143 142 145 144 143 146 148 142 135 130 129 130 126 119 118 126 78 307 269 288 275 276 295 304 298 298 301 297 288 276 266 261 255 246 246 254 253 247 244 246 247 245 246 256 266 263 253 245 237 235 237
178 178 178 177 174 175 176 177 177 176 179 181 180 175 170 168 168 170 172 173 170 165 163 160 158 156 155 156 156 154 156 151 148 147 142 143 144 142 143 145 143 131 128 131 129 127 126 116 93 63 348 340 333 315 293 294 305 309 311 309 301 304 307 288 274 270 263 257 257 258 253 249 247 246 248 246 243 246 258 265 261 251 244 238 237
182 181 179 178 177 177 177 178 178 177 177 178 181 178 173 169 169 171 172 172 169 169 166 162 162 158 155 157 155 153 153 150 150 149 142 141 141 141 143 143 138 127 125 131 139 147 142 99 46 25 3 346 339 332 310 314 333 335 326 321 310 308 320 302 270 265 271 270 262 256 250 248 249 247 247 248 249 249 250 257 259 252 242 236 234
184 182 182 181 180 179 178 180 179 179 176 175 178 179 177 173 172 172 170 170 172 173 168 165 166 159 157 158 157 152 142 137 144 149 146 140 139 142 141 139 138 131 131 131 142 191 217 352 16 19 9 342 340 340 326 321 341 348 336 328 324 312 318 318 282 270 283 281 264 255 249 247 249 251 253 254 254 252 251 253 259 256 243 233 232
186 183 184 184 182 181 180 181 180 180 177 174 176 178 180 178 174 172 169 172 174 171 167 168 165 159 160 159 157 151 135 126 126 136 149 146 140 142 142 142 143 145 154 151 165 232 263 341 360 3 350 339 343 342 337 329 330 342 340 330 330 323 313 309 299 286 281 277 266 262 259 254 252 255 258 260 260 257 256 255 258 258 248 238 234
185 184 185 185 183 183 183 183 180 181 179 175 177 178 179 179 174 172 173 172 171 170 170 170 166 161 159 157 156 152 142 132 124 126 144 153 151 146 145 148 152 167 206 214 211 225 354 7 341 339 339 338 343 338 334 332 327 336 345 340 341 341 328 304 296 300 294 283 273 268 266 262 260 262 264 266 266 263 262 259 258 256 250 245 240
185 186 185 184 183 184 185 184 182 184 183 177 179 179 178 178 175 175 177 173 172 175 174 173 171 167 164 162 161 159 156 149 144 143 145 156 164 158 155 159 157 173 228 218 204 226 338 7 345 331 334 334 335 332 330 336 335 339 347 349 353 350 333 301 291 300 305 294 281 273 269 268 267 267 269 272 271 272 268 261 259 257 253 249 244
187 188 185 184 183 184 185 185 185 188 188 182 182 181 179 180 179 180 181 177 178 180 180 179 177 173 174 175 170 172 172 161 165 168 165 172 176 174 171 164 138 139 255 226 208 232 303 339 333 325 324 326 331 330 332 339 339 343 350 350 354 352 324 300 296 298 297 291 288 283 275 274 275 274 276 276 281 287 271 257 258 261 260 253 244
189 189 186 186 185 184 184 184 187 190 191 187 186 186 184 185 186 187 184 184 186 184 183 183 183 181 181 183 180 182 181 173 198 200 186 186 189 198 199 192 211 303 289 255 220 233 297 311 317 316 313 315 325 329 330 335 338 346 355 350 349 349 331 309 305 308 303 300 299 292 283 283 287 289 289 285 288 287 264 256 268 269 265 258 245
188 188 189 190 187 184 184 186 188 190 192 190 189 190 189 189 190 192 190 191 192 188 188 185 186 187 184 188 186 187 189 185 207 221 202 191 201 220 221 220 238 259 270 257 212 202 257 280 290 290 295 304 315 323 324 328 339 347 349 346 345 345 335 313 307 318 313 308 301 297 296 300 305 304 302 297 289 278 259 259 271 265 261 260 251
187 185 189 193 190 186 186 190 191 189 192 193 191 192 195 192 191 196 196 197 197 193 192 188 189 190 186 192 192 192 196 194 205 217 204 199 209 211 206 203 210 224 236 242 228 216 229 245 265 275 287 301 311 320 325 330 343 347 342 341 342 341 335 320 320 321 312 313 312 317 320 317 324 319 305 295 287 280 269 270 274 269 265 264 262
189 185 188 192 191 190 188 191 194 191 194 198 194 192 198 195 194 199 200 202 204 199 193 191 195 197 191 192 199 201 200 198 205 209 203 209 210 201 201 200 207 227 229 234 239 237 243 250 258 272 289 299 308 319 324 330 341 342 335 337 343 341 338 333 338 329 319 329 332 337 338 328 330 321 302 295 296 295 285 282 281 276 270 264 263
192 189 190 191 192 195 193 192 194 193 197 201 197 196 200 197 197 201 202 203 208 207 199 196 200 206 202 194 199 207 207 205 207 209 213 220 212 202 210 207 208 228 230 234 240 244 251 252 249 262 282 292 306 319 321 327 335 332 326 335 345 345 341 335 343 346 342 346 347 351 348 330 320 313 307 304 308 307 295 291 286 274 270 265 262
193 193 193 194 195 195 193 191 192 196 198 199 198 199 200 199 200 202 204 205 208 211 208 204 206 213 215 205 202 209 212 211 212 216 223 223 209 200 210 210 209 222 234 242 245 248 247 238 239 253 272 286 302 312 316 327 331 326 324 335 343 340 330 324 340 355 356 350 356 3 354 331 317 313 315 315 313 307 297 296 289 273 265 260 264
194 195 193 195 198 196 195 193 193 197 198 197 199 200 199 199 202 204 206 208 208 208 208 208 210 216 220 216 214 214 212 215 218 219 220 213 202 199 207 208 209 221 236 244 247 249 241 231 242 255 269 285 300 312 321 330 330 325 325 334 338 330 325 330 339 351 0 353 357 5 346 328 329 327 323 324 327 317 297 300 303 288 264 245 247
193 195 192 195 197 196 198 196 194 195 194 195 197 199 199 197 201 205 206 209 207 202 204 207 208 212 218 220 219 217 214 216 220 218 214 207 200 201 206 205 208 221 235 243 242 240 236 234 246 257 268 279 287 315 334 335 328 323 323 329 330 324 327 339 338 345 17 17 2 356 331 322 335 340 329 330 338 329 297 306 312 304 295 259 240
190 194 194 196 197 197 200 198 192 193 194 195 196 200 201 198 201 205 206 207 205 201 201 204 206 208 213 219 222 228 224 218 221 220 216 211 204 205 208 208 209 220 234 239 230 228 230 231 243 255 265 273 265 276 332 343 328 321 324 327 322 316 322 334 336 348 30 25 7 352 331 328 340 343 333 334 344 342 298 305 304 298 304 281 262
190 194 195 196 196 197 200 199 194 197 201 200 202 205 207 206 207 208 207 207 207 208 207 207 207 206 209 216 223 233 233 221 219 220 220 218 210 209 213 215 214 219 231 235 225 224 228 231 241 254 268 284 273 266 332 344 329 322 333 336 328 321 329 331 333 358 18 8 358 347 335 334 340 341 335 332 342 337 281 294 298 291 294 277 267
193 195 197 195 195 196 200 201 201 204 206 206 209 212 215 217 217 216 212 211 213 215 217 216 214 210 212 220 226 231 235 230 223 221 223 223 218 215 217 221 223 224 229 234 230 225 228 235 245 258 269 272 265 271 326 333 325 330 341 339 331 331 336 334 331 353 360 350 344 342 339 339 342 346 345 339 341 338 296 299 306 290 285 280 267
193 197 199 199 199 198 201 204 206 211 213 212 217 219 221 223 222 220 218 217 218 218 220 219 217 214 216 223 226 228 234 237 233 230 229 228 225 222 221 225 229 230 232 234 232 227 229 238 247 257 260 256 269 287 297 301 308 333 345 339 325 322 329 338 342 342 346 348 341 335 338 346 351 352 356 358 356 355 336 320 318 286 276 288 269
196 199 200 203 205 204 206 209 211 215 217 217 219 220 221 222 217 214 214 216 216 216 216 215 214 214 216 221 223 225 231 237 238 238 240 234 227 225 224 226 229 232 234 234 232 233 234 237 242 245 239 255 291 289 281 280 293 327 341 337 325 314 323 338 345 337 338 347 344 338 341 349 353 356 0 10 14 11 360 332 322 273 236 265 249
198 200 203 205 208 209 211 213 215 216 216 219 220 220 222 222 217 213 213 216 215 215 217 215 214 215 218 221 223 228 234 239 241 241 243 237 227 225 226 226 229 232 235 234 233 235 236 233 232 233 231 253 279 279 273 271 287 309 318 320 320 319 327 337 344 339 340 353 355 351 354 353 356 360 1 6 27 22 14 352 333 265 184 225 219
203 204 206 206 207 210 213 214 215 214 215 219 220 223 226 226 224 220 221 224 224 223 221 219 219 220 224 226 228 232 237 241 241 240 243 238 227 225 227 227 229 232 235 236 235 233 230 230 226 224 236 264 272 277 274 268 285 298 295 305 318 326 330 332 339 338 338 349 2 3 2 1 1 4 8 15 44 35 23 14 1 22 155 227 207
209 210 211 210 210 212 215 216 215 214 217 221 223 226 228 231 229 225 225 228 230 230 228 226 223 223 225 229 233 236 238 238 236 235 242 239 230 225 227 228 229 231 234 237 239 235 229 226 222 219 239 269 273 276 272 268 284 292 285 301 323 330 330 327 330 334 331 333 348 4 7 7 7 9 18 23 23 26 16 11 9 16 79 144 160
218 219 220 219 216 215 217 217 216 217 220 223 225 227 229 232 231 228 226 226 227 229 230 232 230 227 228 230 234 238 240 241 239 238 239 240 236 229 226 228 230 230 232 238 240 236 231 223 219 220 236 260 270 272 273 276 282 279 279 304 322 325 328 329 329 329 328 326 335 352 359 2 9 13 18 15 3 357 357 3 11 14 53 123 137
224 225 225 223 221 218 217 218 220 221 223 226 227 228 228 229 229 229 228 225 224 225 228 233 233 233 234 235 236 239 244 248 249 248 244 242 243 237 230 228 230 231 231 235 236 233 232 224 219 223 233 252 266 272 279 288 283 269 269 295 311 312 317 328 333 330 327 325 326 340 351 355 360 6 11 15 10 6 1 5 17 35 107 132 134
224 223 221 222 222 221 219 220 224 224 226 228 229 229 228 229 228 228 229 230 228 227 229 232 233 235 236 236 239 240 245 251 252 252 249 247 246 244 239 232 229 231 230 232 233 231 230 225 218 218 230 248 259 267 280 296 295 277 268 274 287 294 300 316 332 329 323 321 324 336 349 350 351 357 5 14 15 14 16 12 14 50 125 139 143